When you browse on this site, cookies collect data to enhance your experience and personalize the content and advertising you see.
Visit our Privacy Policy to learn more. By continuing to use the site, you agree to this use of cookies and data.
  • In Portugal
  • List of Countries
  • For 7 days
  • Water Temperature
  • Satellite Maps
  • Weather Map
  • Weather Widgets
  • user-avatar
    Login

    Hourly Weather Bartag

    Today, 17 June, Monday

    Time Temperature Precipitation Wind Pressure Humidity
    00:00 +16°C° 0 mm 3 mps 754 mmHg 88%
    01:00 +16°C° 0 mm 3 mps 754 mmHg 87%
    02:00 +14°C° 0 mm 3 mps 754 mmHg 88%
    03:00 +14°C° 0 mm 3 mps 754 mmHg 88%
    04:00 +13°C° 0 mm 3 mps 754 mmHg 89%
    05:00 +14°C° 0 mm 4 mps 754 mmHg 86%
    06:00 +17°C° 0 mm 4 mps 754 mmHg 83%
    07:00 +18°C° 0 mm 4 mps 755 mmHg 80%
    08:00 +18°C° 0 mm 4 mps 755 mmHg 80%
    09:00 +19°C° 0 mm 4 mps 755 mmHg 79%
    10:00 +19°C° 0 mm 4 mps 755 mmHg 79%
    11:00 +20°C° 0 mm 5 mps 755 mmHg 75%
    12:00 +21°C° 0 mm 5 mps 755 mmHg 72%
    13:00 +22°C° 0 mm 5 mps 756 mmHg 68%
    14:00 +22°C° 0 mm 5 mps 756 mmHg 67%
    15:00 +21°C° 0 mm 5 mps 755 mmHg 65%
    16:00 +21°C° 0 mm 5 mps 755 mmHg 64%
    17:00 +20°C° 0 mm 4 mps 755 mmHg 69%
    18:00 +19°C° 0 mm 3 mps 755 mmHg 75%
    19:00 +18°C° 0 mm 2 mps 755 mmHg 80%
    20:00 +16°C° 0 mm 2 mps 756 mmHg 84%
    21:00 +15°C° 0 mm 2 mps 756 mmHg 88%
    22:00 +13°C° 0 mm 1 mps 756 mmHg 93%
    23:00 +13°C° 0 mm 1 mps 756 mmHg 92%

    Tomorrow, 18 June, Tuesday

    Time Temperature Precipitation Wind Pressure Humidity
    00:00 +13°C° 0 mm 1 mps 756 mmHg 91%
    01:00 +13°C° 0 mm 1 mps 756 mmHg 90%
    02:00 +13°C° 0 mm 1 mps 756 mmHg 89%
    03:00 +12°C° 0 mm 0 mps 756 mmHg 89%
    04:00 +12°C° 0 mm 0 mps 756 mmHg 89%
    05:00 +14°C° 0 mm 0 mps 756 mmHg 82%
    06:00 +18°C° 0 mm 1 mps 757 mmHg 75%
    07:00 +20°C° 0 mm 1 mps 757 mmHg 68%
    08:00 +22°C° 0 mm 1 mps 757 mmHg 63%
    09:00 +23°C° 0 mm 1 mps 757 mmHg 57%
    10:00 +25°C° 0 mm 1 mps 757 mmHg 51%
    11:00 +25°C° 0 mm 1 mps 756 mmHg 50%
    12:00 +26°C° 0 mm 1 mps 756 mmHg 48%
    13:00 +26°C° 0 mm 2 mps 755 mmHg 46%
    14:00 +26°C° 0 mm 2 mps 755 mmHg 49%
    15:00 +26°C° 0 mm 2 mps 755 mmHg 51%
    16:00 +26°C° 0 mm 3 mps 755 mmHg 54%
    17:00 +24°C° 0 mm 2 mps 754 mmHg 61%
    18:00 +23°C° 0 mm 2 mps 754 mmHg 69%
    19:00 +21°C° 0 mm 1 mps 754 mmHg 77%
    20:00 +20°C° 0 mm 1 mps 754 mmHg 79%
    21:00 +18°C° 0 mm 2 mps 754 mmHg 81%
    22:00 +17°C° 0 mm 2 mps 754 mmHg 83%
    23:00 +17°C° 0 mm 2 mps 754 mmHg 83%

    Day after tomorrow, 19 June, Wednesday

    Time Temperature Precipitation Wind Pressure Humidity
    00:00 +16°C° 0 mm 2 mps 753 mmHg 83%
    01:00 +16°C° 0 mm 2 mps 753 mmHg 83%
    02:00 +16°C° 0 mm 2 mps 753 mmHg 83%
    03:00 +16°C° 0 mm 2 mps 753 mmHg 83%
    04:00 +16°C° 0 mm 3 mps 752 mmHg 83%
    05:00 +17°C° 0 mm 3 mps 752 mmHg 79%
    06:00 +19°C° 0 mm 3 mps 752 mmHg 74%
    07:00 +20°C° 0 mm 4 mps 752 mmHg 70%
    08:00 +20°C° 0 mm 4 mps 752 mmHg 73%
    09:00 +20°C° 0 mm 4 mps 752 mmHg 75%
    10:00 +20°C° 0 mm 4 mps 752 mmHg 77%
    11:00 +20°C° 0 mm 4 mps 751 mmHg 75%
    12:00 +21°C° 0 mm 4 mps 751 mmHg 73%
    13:00 +22°C° 0 mm 5 mps 750 mmHg 71%
    14:00 +23°C° 0 mm 5 mps 750 mmHg 70%
    15:00 +23°C° 0 mm 5 mps 750 mmHg 70%
    16:00 +25°C° 0 mm 5 mps 749 mmHg 69%
    17:00 +23°C° 0.1 mm 4 mps 749 mmHg 75%
    18:00 +22°C° 0.1 mm 3 mps 749 mmHg 81%
    19:00 +22°C° 0.1 mm 3 mps 748 mmHg 87%
    20:00 +21°C° 0.3 mm 2 mps 748 mmHg 90%
    21:00 +20°C° 0.3 mm 2 mps 748 mmHg 93%
    22:00 +19°C° 0.3 mm 2 mps 748 mmHg 97%
    23:00 +19°C° 0 mm 2 mps 748 mmHg 97%

    20 June, Thursday

    Time Temperature Precipitation Wind Pressure Humidity
    00:00 +19°C° 0 mm 1 mps 747 mmHg 97%
    01:00 +19°C° 0 mm 1 mps 747 mmHg 97%
    02:00 +19°C° 0 mm 1 mps 747 mmHg 97%
    03:00 +19°C° 0 mm 1 mps 748 mmHg 97%
    04:00 +18°C° 0 mm 2 mps 748 mmHg 97%
    05:00 +20°C° 0 mm 2 mps 748 mmHg 93%
    06:00 +21°C° 0 mm 2 mps 748 mmHg 89%
    07:00 +24°C° 0 mm 2 mps 748 mmHg 85%
    08:00 +25°C° 0 mm 2 mps 749 mmHg 76%
    09:00 +27°C° 0 mm 2 mps 749 mmHg 67%
    10:00 +29°C° 0 mm 2 mps 749 mmHg 57%
    11:00 +29°C° 0 mm 2 mps 749 mmHg 54%
    12:00 +30°C° 0 mm 2 mps 749 mmHg 51%
    13:00 +31°C° 0 mm 2 mps 749 mmHg 49%
    14:00 +30°C° 0 mm 2 mps 749 mmHg 50%
    15:00 +30°C° 0 mm 2 mps 750 mmHg 52%
    16:00 +30°C° 0 mm 2 mps 750 mmHg 54%
    17:00 +28°C° 0.4 mm 2 mps 750 mmHg 65%
    18:00 +26°C° 0.4 mm 2 mps 750 mmHg 77%
    19:00 +24°C° 0.4 mm 2 mps 750 mmHg 88%
    20:00 +21°C° 0.1 mm 2 mps 750 mmHg 91%
    21:00 +20°C° 0.1 mm 3 mps 751 mmHg 94%
    22:00 +18°C° 0.1 mm 3 mps 751 mmHg 97%
    23:00 +18°C° 0.4 mm 3 mps 751 mmHg 97%

    21 June, Friday

    Time Temperature Precipitation Wind Pressure Humidity
    00:00 +17°C° 0.4 mm 2 mps 751 mmHg 97%
    01:00 +17°C° 0.4 mm 2 mps 751 mmHg 97%
    02:00 +16°C° 0.3 mm 2 mps 751 mmHg 97%
    03:00 +16°C° 0.3 mm 2 mps 751 mmHg 97%
    04:00 +16°C° 0.3 mm 2 mps 751 mmHg 96%
    05:00 +16°C° 0.3 mm 2 mps 751 mmHg 96%
    06:00 +16°C° 0.3 mm 2 mps 751 mmHg 96%
    07:00 +17°C° 0.3 mm 2 mps 751 mmHg 96%
    08:00 +17°C° 0.1 mm 2 mps 751 mmHg 95%
    09:00 +17°C° 0.1 mm 2 mps 752 mmHg 95%
    10:00 +18°C° 0.1 mm 2 mps 752 mmHg 94%
    11:00 +19°C° 0 mm 2 mps 751 mmHg 87%
    12:00 +21°C° 0 mm 3 mps 751 mmHg 79%
    13:00 +24°C° 0 mm 3 mps 751 mmHg 72%
    14:00 +25°C° 0 mm 3 mps 751 mmHg 71%
    15:00 +25°C° 0 mm 3 mps 751 mmHg 70%
    16:00 +26°C° 0 mm 3 mps 751 mmHg 70%
    17:00 +25°C° 0 mm 3 mps 751 mmHg 76%
    18:00 +24°C° 0 mm 2 mps 750 mmHg 82%
    19:00 +23°C° 0 mm 2 mps 750 mmHg 87%
    20:00 +21°C° 0 mm 2 mps 750 mmHg 91%
    21:00 +20°C° 0 mm 2 mps 751 mmHg 94%
    22:00 +19°C° 0 mm 2 mps 751 mmHg 97%
    23:00 +18°C° 0 mm 2 mps 751 mmHg 98%

    22 June, Saturday

    Time Temperature Precipitation Wind Pressure Humidity
    00:00 +18°C° 0 mm 2 mps 750 mmHg 98%
    01:00 +18°C° 0 mm 2 mps 750 mmHg 98%
    02:00 +18°C° 0 mm 2 mps 750 mmHg 98%
    03:00 +18°C° 0 mm 2 mps 750 mmHg 98%
    04:00 +18°C° 0 mm 2 mps 750 mmHg 98%
    05:00 +19°C° 0 mm 2 mps 750 mmHg 93%
    06:00 +20°C° 0 mm 2 mps 750 mmHg 89%
    07:00 +22°C° 0 mm 3 mps 750 mmHg 84%
    08:00 +24°C° 0 mm 3 mps 750 mmHg 80%
    09:00 +25°C° 0 mm 3 mps 750 mmHg 77%
    10:00 +27°C° 0 mm 4 mps 750 mmHg 73%
    11:00 +27°C° 0.8 mm 4 mps 750 mmHg 75%
    12:00 +27°C° 0.8 mm 3 mps 749 mmHg 78%
    13:00 +27°C° 0.8 mm 3 mps 749 mmHg 80%
    14:00 +26°C° 2.3 mm 4 mps 749 mmHg 83%
    15:00 +25°C° 2.3 mm 4 mps 749 mmHg 86%
    16:00 +23°C° 2.3 mm 5 mps 748 mmHg 89%
    17:00 +22°C° 1.5 mm 5 mps 748 mmHg 92%
    18:00 +21°C° 1.5 mm 4 mps 748 mmHg 94%
    19:00 +20°C° 1.5 mm 4 mps 748 mmHg 96%
    20:00 +19°C° 0.7 mm 3 mps 748 mmHg 97%
    21:00 +18°C° 0.7 mm 3 mps 748 mmHg 97%
    22:00 +17°C° 0.7 mm 2 mps 748 mmHg 98%
    23:00 +17°C° 0 mm 2 mps 748 mmHg 98%
    Show more